Location: Rancho Del Sol Observatory
(38.7214°N, 120.6350°W)
Time: 12:49:49
(UTC-08:00)

Courier 1B Rocket - Pass Details

Date: 04 February 2020
Orbit: 920 x 1202 km, 28.2° (Epoch: 22 February)

Event Time Altitude Azimuth Distance (km) Brightness Sun altitude
Rises 10:56:24 0° 262° (W) 4,087 8.1 32.0°
Reaches altitude 10° 10:59:37 10° 252° (WSW) 3,106 7.7 32.2°
Maximum altitude 11:06:12 31° 194° (SSW) 1,896 7.8 32.7°
Drops below altitude 10° 11:12:30 10° 135° (SE) 2,968 8.6 33.1°
Sets 11:15:31 0° 125° (SE) 3,880 8.8 33.2°
